• In Hungary
  • List of Countries
  • For 7 days
  • Water Temperature
  • Satellite Maps
  • Weather Map
  • News
  • Weather Widgets
  • user-avatar
    Login

    Hourly Weather Kotlice

    Today, 23 July, Monday

    Time Temperature Precipitation Wind Pressure Humidity
    00:00 +19°C° 0 mm 2 mps 740 mmHg 87%
    01:00 +19°C° 0 mm 2 mps 740 mmHg 88%
    02:00 +19°C° 0 mm 2 mps 739 mmHg 88%
    03:00 +19°C° 0.4 mm 2 mps 739 mmHg 90%
    04:00 +18°C° 0.4 mm 2 mps 739 mmHg 92%
    05:00 +18°C° 0.4 mm 3 mps 739 mmHg 94%
    06:00 +19°C° 0.2 mm 3 mps 739 mmHg 92%
    07:00 +20°C° 0.2 mm 4 mps 739 mmHg 89%
    08:00 +21°C° 0.2 mm 4 mps 740 mmHg 87%
    09:00 +22°C° 0.6 mm 4 mps 740 mmHg 83%
    10:00 +23°C° 0.6 mm 5 mps 739 mmHg 78%
    11:00 +25°C° 0.6 mm 5 mps 739 mmHg 74%
    12:00 +26°C° 0.7 mm 5 mps 739 mmHg 73%
    13:00 +26°C° 0.7 mm 6 mps 739 mmHg 72%
    14:00 +26°C° 0.7 mm 6 mps 739 mmHg 71%
    15:00 +26°C° 1 mm 5 mps 739 mmHg 75%
    16:00 +25°C° 1 mm 5 mps 739 mmHg 78%
    17:00 +25°C° 1 mm 5 mps 739 mmHg 81%
    18:00 +23°C° 1 mm 5 mps 739 mmHg 84%
    19:00 +22°C° 1 mm 5 mps 739 mmHg 86%
    20:00 +21°C° 1 mm 5 mps 739 mmHg 88%
    21:00 +21°C° 1.4 mm 5 mps 739 mmHg 89%
    22:00 +21°C° 1.4 mm 5 mps 739 mmHg 90%
    23:00 +20°C° 1.4 mm 5 mps 739 mmHg 91%

    Tomorrow, 24 July, Tuesday

    Time Temperature Precipitation Wind Pressure Humidity
    00:00 +20°C° 0.3 mm 5 mps 739 mmHg 91%
    01:00 +20°C° 0.3 mm 5 mps 739 mmHg 92%
    02:00 +19°C° 0.3 mm 5 mps 739 mmHg 93%
    03:00 +19°C° 0.1 mm 4 mps 739 mmHg 94%
    04:00 +19°C° 0.1 mm 4 mps 739 mmHg 94%
    05:00 +18°C° 0.1 mm 4 mps 739 mmHg 95%
    06:00 +19°C° 0.5 mm 4 mps 740 mmHg 94%
    07:00 +19°C° 0.5 mm 4 mps 740 mmHg 93%
    08:00 +20°C° 0.5 mm 4 mps 740 mmHg 93%
    09:00 +21°C° 0.3 mm 4 mps 740 mmHg 92%
    10:00 +21°C° 0.3 mm 4 mps 740 mmHg 90%
    11:00 +22°C° 0.3 mm 4 mps 740 mmHg 89%
    12:00 +23°C° 0.4 mm 4 mps 740 mmHg 85%
    13:00 +25°C° 0.4 mm 4 mps 740 mmHg 82%
    14:00 +26°C° 0.4 mm 4 mps 740 mmHg 78%
    15:00 +26°C° 0.5 mm 5 mps 739 mmHg 78%
    16:00 +26°C° 0.5 mm 5 mps 739 mmHg 78%
    17:00 +26°C° 0.5 mm 5 mps 739 mmHg 78%
    18:00 +25°C° 0.4 mm 4 mps 739 mmHg 82%
    19:00 +24°C° 0.4 mm 3 mps 740 mmHg 85%
    20:00 +22°C° 0.4 mm 3 mps 740 mmHg 89%
    21:00 +21°C° 0 mm 3 mps 740 mmHg 91%
    22:00 +20°C° 0 mm 3 mps 740 mmHg 93%
    23:00 +20°C° 0 mm 3 mps 740 mmHg 95%

    Day after tomorrow, 25 July, Wednesday

    Time Temperature Precipitation Wind Pressure Humidity
    00:00 +19°C° 0 mm 3 mps 740 mmHg 95%
    01:00 +19°C° 0 mm 3 mps 740 mmHg 96%
    02:00 +19°C° 0 mm 3 mps 740 mmHg 97%
    03:00 +18°C° 0 mm 3 mps 740 mmHg 97%
    04:00 +18°C° 0 mm 2 mps 740 mmHg 98%
    05:00 +18°C° 0 mm 2 mps 740 mmHg 98%
    06:00 +19°C° 0 mm 2 mps 740 mmHg 97%
    07:00 +20°C° 0 mm 3 mps 740 mmHg 95%
    08:00 +21°C° 0 mm 3 mps 741 mmHg 93%
    09:00 +21°C° 0.2 mm 3 mps 741 mmHg 91%
    10:00 +22°C° 0.2 mm 3 mps 741 mmHg 88%
    11:00 +24°C° 0.2 mm 3 mps 741 mmHg 86%
    12:00 +25°C° 0.7 mm 3 mps 741 mmHg 82%
    13:00 +25°C° 0.7 mm 3 mps 740 mmHg 79%
    14:00 +26°C° 0.7 mm 3 mps 740 mmHg 75%
    15:00 +26°C° 1.2 mm 3 mps 740 mmHg 76%
    16:00 +26°C° 1.2 mm 3 mps 740 mmHg 77%
    17:00 +26°C° 1.2 mm 3 mps 740 mmHg 78%
    18:00 +25°C° 1 mm 2 mps 740 mmHg 82%
    19:00 +24°C° 1 mm 2 mps 740 mmHg 85%
    20:00 +23°C° 1 mm 1 mps 740 mmHg 89%
    21:00 +22°C° 0 mm 1 mps 740 mmHg 91%
    22:00 +22°C° 0 mm 1 mps 740 mmHg 92%
    23:00 +21°C° 0 mm 1 mps 740 mmHg 94%

    26 July, Thursday

    Time Temperature Precipitation Wind Pressure Humidity
    00:00 +21°C° 0 mm 1 mps 740 mmHg 94%
    01:00 +21°C° 0 mm 1 mps 740 mmHg 95%
    02:00 +20°C° 0 mm 1 mps 740 mmHg 95%
    03:00 +20°C° 0 mm 1 mps 741 mmHg 96%
    04:00 +20°C° 0 mm 1 mps 741 mmHg 96%
    05:00 +20°C° 0 mm 1 mps 741 mmHg 96%
    06:00 +21°C° 0 mm 1 mps 741 mmHg 93%
    07:00 +22°C° 0 mm 1 mps 741 mmHg 89%
    08:00 +24°C° 0 mm 1 mps 742 mmHg 86%
    09:00 +25°C° 0.3 mm 1 mps 742 mmHg 80%
    10:00 +27°C° 0.3 mm 1 mps 742 mmHg 74%
    11:00 +28°C° 0.3 mm 1 mps 742 mmHg 68%
    12:00 +28°C° 0.6 mm 2 mps 742 mmHg 67%
    13:00 +29°C° 0.6 mm 2 mps 741 mmHg 65%
    14:00 +29°C° 0.6 mm 3 mps 741 mmHg 64%
    15:00 +29°C° 0.4 mm 3 mps 741 mmHg 65%
    16:00 +29°C° 0.4 mm 3 mps 741 mmHg 67%
    17:00 +29°C° 0.4 mm 3 mps 741 mmHg 68%
    18:00 +28°C° 0.1 mm 3 mps 741 mmHg 73%
    19:00 +27°C° 0.1 mm 3 mps 741 mmHg 79%
    20:00 +25°C° 0.1 mm 2 mps 742 mmHg 84%
    21:00 +24°C° 0 mm 2 mps 742 mmHg 87%
    22:00 +24°C° 0 mm 2 mps 742 mmHg 89%
    23:00 +23°C° 0 mm 2 mps 742 mmHg 92%

    27 July, Friday

    Time Temperature Precipitation Wind Pressure Humidity
    00:00 +21°C° 0.6 mm 2 mps 742 mmHg 93%
    01:00 +21°C° 0.6 mm 2 mps 742 mmHg 94%
    02:00 +21°C° 0.6 mm 2 mps 742 mmHg 95%
    03:00 +20°C° 0 mm 2 mps 742 mmHg 95%
    04:00 +20°C° 0 mm 2 mps 742 mmHg 96%
    05:00 +20°C° 0 mm 2 mps 742 mmHg 96%
    06:00 +21°C° 0 mm 3 mps 742 mmHg 94%
    07:00 +22°C° 0 mm 3 mps 742 mmHg 91%
    08:00 +24°C° 0 mm 3 mps 743 mmHg 88%
    09:00 +26°C° 0.3 mm 3 mps 743 mmHg 83%
    10:00 +27°C° 0.3 mm 4 mps 743 mmHg 78%
    11:00 +28°C° 0.3 mm 4 mps 743 mmHg 74%
    12:00 +29°C° 0.7 mm 4 mps 743 mmHg 71%
    13:00 +29°C° 0.7 mm 4 mps 742 mmHg 68%
    14:00 +30°C° 0.7 mm 3 mps 742 mmHg 66%
    15:00 +29°C° 0.1 mm 3 mps 742 mmHg 66%
    16:00 +29°C° 0.1 mm 3 mps 742 mmHg 66%
    17:00 +29°C° 0.1 mm 3 mps 742 mmHg 66%
    18:00 +28°C° 0 mm 3 mps 742 mmHg 72%
    19:00 +26°C° 0 mm 3 mps 742 mmHg 77%
    20:00 +25°C° 0 mm 2 mps 741 mmHg 83%
    21:00 +24°C° 0 mm 2 mps 741 mmHg 86%
    22:00 +23°C° 0 mm 2 mps 741 mmHg 88%
    23:00 +21°C° 0 mm 2 mps 741 mmHg 91%

    28 July, Saturday

    Time Temperature Precipitation Wind Pressure Humidity
    00:00 +21°C° 0 mm 2 mps 741 mmHg 92%
    01:00 +22°C° 0 mm 1 mps 741 mmHg 92%
    02:00 +21°C° 0 mm 1 mps 741 mmHg 93%
    03:00 +21°C° 0 mm 1 mps 741 mmHg 93%
    04:00 +21°C° 0 mm 1 mps 741 mmHg 94%
    05:00 +20°C° 0 mm 1 mps 741 mmHg 95%
    06:00 +22°C° 0 mm 1 mps 741 mmHg 90%
    07:00 +23°C° 0 mm 2 mps 741 mmHg 86%
    08:00 +25°C° 0 mm 2 mps 741 mmHg 82%
    09:00 +26°C° 0 mm 2 mps 741 mmHg 76%
    10:00 +27°C° 0 mm 2 mps 741 mmHg 71%
    11:00 +29°C° 0 mm 1 mps 741 mmHg 66%
    12:00 +29°C° 0 mm 1 mps 741 mmHg 63%
    13:00 +30°C° 0 mm 1 mps 741 mmHg 61%
    14:00 +30°C° 0 mm 1 mps 740 mmHg 59%
    15:00 +30°C° 0.1 mm 1 mps 740 mmHg 59%
    16:00 +30°C° 0.1 mm 2 mps 740 mmHg 60%
    17:00 +30°C° 0.1 mm 2 mps 740 mmHg 61%
    18:00 +29°C° 0.1 mm 2 mps 740 mmHg 68%
    19:00 +27°C° 0.1 mm 2 mps 740 mmHg 76%
    20:00 +26°C° 0.1 mm 2 mps 740 mmHg 84%
    21:00 +25°C° 0.2 mm 2 mps 741 mmHg 86%
    22:00 +24°C° 0.2 mm 2 mps 741 mmHg 89%
    23:00 +23°C° 0.2 mm 2 mps 741 mmHg 92%
    Show more